tititudorancea.com
Station Historical Data
Daily Summary for February 1, 2019 Units:  Metric    English   Both
« Previous Day
Next Day »
Daily Weekly Monthly Yearly Custom
  High: Low: Average:
Temperature: -17.8 °C 7.9 °C 15.9 °C
Dew Point: -17.8 °C 3.6 °C 5.5 °C
Humidity: Humidity % 27 % 53 %
Wind Speed: 0 km/h 7.4 km/h 21.1 km/h
Wind Gust: 0 km/h - -
Wind:- - SSE
Pressure: 0 hPa 1015.1 hPa -
Precipitation: 0 mm    
Historical Graphs
 
 
Ararat weather Find more about Weather in Ararat, AU


 



 


Tabular Data for February 1, 2019
Time Temperature Dew Point Pressure Wind Wind Speed Wind Gust Humidity Rainfall Rate (Hourly)
-17.8 °C -17.8 °C 0 hPa Calm     Humidity % 0 mm
00:04 10.6 °C 4.1 °C 1020.2 hPa South 11.1 km/h 5.8 km/h 64 % 0 mm
00:09 10.5 °C 3.9 °C 1020.2 hPa South 16.7 km/h 10.5 km/h 64 % 0 mm
00:14 10.4 °C 3.9 °C 1019.9 hPa South 18.5 km/h 8.4 km/h 64 % 0 mm
00:19 10.3 °C 3.8 °C 1019.9 hPa South 18.5 km/h 6.1 km/h 64 % 0 mm
00:24 10.3 °C 3.8 °C 1019.9 hPa South 13 km/h 9.5 km/h 64 % 0 mm
00:29 10.2 °C 3.7 °C 1020.2 hPa South 14.8 km/h 10 km/h 64 % 0 mm
00:34 10.1 °C 3.6 °C 1020.2 hPa South 13 km/h 9.8 km/h 64 % 0 mm
00:39 10 °C 3.7 °C 1019.9 hPa South 18.5 km/h 11.3 km/h 65 % 0 mm
00:44 9.9 °C 3.7 °C 1019.9 hPa South 13 km/h 7.1 km/h 65 % 0 mm
00:49 9.9 °C 3.6 °C 1019.9 hPa South 16.7 km/h 12.2 km/h 65 % 0 mm
00:54 9.8 °C 3.8 °C 1019.9 hPa South 18.5 km/h 9 km/h 66 % 0 mm
00:59 9.8 °C 3.7 °C 1019.9 hPa South 11.1 km/h 5.5 km/h 66 % 0 mm
01:04 9.7 °C 3.7 °C 1019.9 hPa South 18.5 km/h 10.3 km/h 66 % 0 mm
01:09 9.7 °C 3.6 °C 1019.9 hPa South 14.8 km/h 7.4 km/h 66 % 0 mm
01:14 9.6 °C 3.8 °C 1019.9 hPa South 16.7 km/h 7.7 km/h 67 % 0 mm
01:19 9.6 °C 3.7 °C 1019.9 hPa South 14.8 km/h 10 km/h 67 % 0 mm
01:24 9.5 °C 3.7 °C 1019.9 hPa South 11.1 km/h 9.2 km/h 67 % 0 mm
01:29 9.5 °C 3.7 °C 1019.9 hPa South 18.5 km/h 10.9 km/h 67 % 0 mm
01:34 9.4 °C 3.6 °C 1019.9 hPa South 18.5 km/h 7.1 km/h 67 % 0 mm
01:39 9.4 °C 3.6 °C 1019.9 hPa South 16.7 km/h 12.2 km/h 67 % 0 mm
01:44 9.4 °C 3.8 °C 1019.9 hPa South 14.8 km/h 7.7 km/h 68 % 0 mm
01:49 9.3 °C 3.7 °C 1019.9 hPa South 13 km/h 7.1 km/h 68 % 0 mm
01:54 9.2 °C 3.6 °C 1019.9 hPa South 14.8 km/h 10.5 km/h 68 % 0 mm
01:59 9.2 °C 3.6 °C 1019.9 hPa South 12.9 km/h 9 km/h 68 % 0 mm
02:04 9.2 °C 3.8 °C 1019.9 hPa South 18.5 km/h 11.6 km/h 69 % 0 mm
02:09 9.1 °C 3.7 °C 1019.9 hPa South 13 km/h 10.5 km/h 69 % 0 mm
02:14 9.1 °C 3.9 °C 1019.9 hPa South 14.8 km/h 9.7 km/h 70 % 0 mm
02:19 9.2 °C 4 °C 1019.9 hPa South 13 km/h 8.2 km/h 70 % 0 mm
02:24 9.2 °C 4.1 °C 1019.9 hPa South 14.8 km/h 8.7 km/h 70 % 0 mm
02:29 9.3 °C 4.1 °C 1019.9 hPa South 18.5 km/h 12.7 km/h 70 % 0 mm
02:34 9.3 °C 3.9 °C 1019.9 hPa South 18.5 km/h 7.6 km/h 69 % 0 mm
02:39 9.3 °C 3.9 °C 1019.9 hPa South 9.7 km/h 6.4 km/h 69 % 0 mm
02:44 9.2 °C 3.8 °C 1019.9 hPa South 16.7 km/h 8.2 km/h 69 % 0 mm
02:49 9.2 °C 4 °C 1019.9 hPa South 14.8 km/h 6.6 km/h 70 % 0 mm
02:54 9.2 °C 4 °C 1019.9 hPa South 8 km/h 6.3 km/h 70 % 0 mm
02:59 9.1 °C 3.9 °C 1019.9 hPa South 13 km/h 7.4 km/h 70 % 0 mm
03:04 9.1 °C 3.9 °C 1019.9 hPa South 11.1 km/h 6.6 km/h 70 % 0 mm
03:09 9 °C 4 °C 1019.9 hPa South 14.8 km/h 8.7 km/h 71 % 0 mm
03:14 8.9 °C 3.9 °C 1019.9 hPa South 14.8 km/h 9 km/h 71 % 0 mm
03:19 8.9 °C 3.9 °C 1019.9 hPa South 14.8 km/h 10.5 km/h 71 % 0 mm
03:24 8.8 °C 4.1 °C 1019.5 hPa South 13 km/h 7.7 km/h 72 % 0 mm
03:29 8.8 °C 4 °C 1019.5 hPa South 13 km/h 9.7 km/h 72 % 0 mm
03:34 8.7 °C 3.9 °C 1019.5 hPa South 13 km/h 8.5 km/h 72 % 0 mm
03:39 8.7 °C 4.2 °C 1019.5 hPa South 16.7 km/h 8.4 km/h 73 % 0 mm
03:44 8.7 °C 4.2 °C 1019.5 hPa South 17.7 km/h 11.7 km/h 73 % 0 mm
03:49 8.7 °C 4.2 °C 1019.5 hPa South 18.5 km/h 6.6 km/h 73 % 0 mm
03:54 8.7 °C 4.1 °C 1019.5 hPa South 14.8 km/h 11.1 km/h 73 % 0 mm
03:59 8.6 °C 4.2 °C 1019.5 hPa South 14.8 km/h 8.7 km/h 74 % 0 mm
04:04 8.6 °C 4.2 °C 1019.5 hPa South 13 km/h 11.4 km/h 74 % 0 mm
04:09 8.6 °C 4.2 °C 1019.5 hPa North 16.7 km/h 11.1 km/h 74 % 0 mm
04:14 8.6 °C 4.2 °C 1019.2 hPa South 16.7 km/h 9.5 km/h 74 % 0 mm
04:19 8.6 °C 4.4 °C 1019.2 hPa North 14.8 km/h 10.1 km/h 75 % 0 mm
04:24 8.6 °C 4.4 °C 1019.2 hPa South 13 km/h 7.6 km/h 75 % 0 mm
04:29 8.6 °C 4.4 °C 1019.2 hPa South 20.4 km/h 10 km/h 75 % 0 mm
04:34 8.6 °C 4.4 °C 1019.2 hPa South 13 km/h 7.1 km/h 75 % 0 mm
04:39 8.6 °C 4.4 °C 1019.2 hPa South 14.5 km/h 9.3 km/h 75 % 0 mm
04:44 8.6 °C 4.4 °C 1019.2 hPa South 14.8 km/h 10.6 km/h 75 % 0 mm
04:49 8.5 °C 4.3 °C 1018.8 hPa South 13 km/h 9.8 km/h 75 % 0 mm
04:54 8.4 °C 4.2 °C 1018.8 hPa South 14.8 km/h 10.5 km/h 75 % 0 mm
04:59 8.3 °C 4.2 °C 1019.2 hPa South 14.5 km/h 9.5 km/h 75 % 0 mm
05:04 8.3 °C 4.2 °C 1019.2 hPa South 13 km/h 8.7 km/h 75 % 0 mm
05:09 8.3 °C 3.9 °C 1019.2 hPa South 14.8 km/h 10.3 km/h 74 % 0 mm
05:14 8.3 °C 3.9 °C 1018.8 hPa North 14.8 km/h 11.4 km/h 74 % 0 mm
05:19 8.3 °C 3.9 °C 1018.8 hPa South 13 km/h 8.4 km/h 74 % 0 mm
05:24 8.3 °C 3.9 °C 1019.2 hPa South 14.8 km/h 11.9 km/h 74 % 0 mm
05:29 8.2 °C 3.8 °C 1018.8 hPa South 12.9 km/h 6.8 km/h 74 % 0 mm
05:34 8.2 °C 3.8 °C 1018.8 hPa South 16.7 km/h 10.8 km/h 74 % 0 mm
05:39 8.2 °C 3.8 °C 1018.8 hPa South 18.5 km/h 10.9 km/h 74 % 0 mm
05:44 8.1 °C 3.8 °C 1018.8 hPa South 13 km/h 7.7 km/h 74 % 0 mm
05:49 8.1 °C 3.9 °C 1018.8 hPa South 14.8 km/h 7.7 km/h 75 % 0 mm
05:54 8 °C 3.8 °C 1019.2 hPa South 14.5 km/h 11.9 km/h 75 % 0 mm
05:59 8 °C 3.8 °C 1019.2 hPa South 18.5 km/h 14.3 km/h 75 % 0 mm
06:04 7.9 °C 3.8 °C 1019.2 hPa South 14.8 km/h 13 km/h 75 % 0 mm
06:09 8 °C 3.8 °C 1019.2 hPa South 16.7 km/h 7.4 km/h 75 % 0 mm
06:14 8 °C 3.8 °C 1019.5 hPa South 13 km/h 11.7 km/h 75 % 0 mm
06:19 8 °C 3.8 °C 1019.2 hPa South 16.7 km/h 10.6 km/h 75 % 0 mm
06:24 8.1 °C 3.9 °C 1019.5 hPa South 16.7 km/h 10 km/h 75 % 0 mm
06:29 8.1 °C 3.9 °C 1019.5 hPa South 18.5 km/h 14 km/h 75 % 0 mm
06:34 8.2 °C 4 °C 1019.5 hPa South 16.7 km/h 9.7 km/h 75 % 0 mm
06:39 8.2 °C 4 °C 1019.5 hPa South 20.4 km/h 10.8 km/h 75 % 0 mm
06:44 8.2 °C 4.1 °C 1019.5 hPa South 18.5 km/h 12.1 km/h 75 % 0 mm
06:49 8.2 °C 4.1 °C 1019.5 hPa South 16.1 km/h 10.8 km/h 75 % 0 mm
06:54 8.2 °C 4.1 °C 1019.5 hPa South 16.7 km/h 12.2 km/h 75 % 0 mm
06:59 8.2 °C 4.2 °C 1019.5 hPa North 16.7 km/h 12.4 km/h 76 % 0 mm
07:04 8.2 °C 4.2 °C 1019.5 hPa South 18.5 km/h 10 km/h 76 % 0 mm
07:09 8.3 °C 4.3 °C 1019.5 hPa South 18.5 km/h 9.3 km/h 76 % 0 mm
07:14 8.4 °C 4.4 °C 1019.5 hPa South 16.7 km/h 12.1 km/h 76 % 0 mm
07:19 8.5 °C 4.5 °C 1019.9 hPa South 14.8 km/h 10.3 km/h 76 % 0 mm
07:24 8.7 °C 4.7 °C 1019.9 hPa South 14.8 km/h 10.6 km/h 76 % 0 mm
07:29 8.8 °C 4.6 °C 1019.9 hPa South 14.8 km/h 8.5 km/h 75 % 0 mm
07:34 8.9 °C 4.7 °C 1019.9 hPa South 14.8 km/h 10 km/h 75 % 0 mm
07:39 9.1 °C 4.8 °C 1019.9 hPa South 16.7 km/h 11.3 km/h 75 % 0 mm
07:44 9.2 °C 4.8 °C 1019.9 hPa South 20.4 km/h 12.4 km/h 74 % 0 mm
07:49 9.4 °C 5 °C 1019.9 hPa South 14.8 km/h 11.7 km/h 74 % 0 mm
07:54 9.6 °C 5.2 °C 1019.9 hPa South 20.4 km/h 13.7 km/h 74 % 0 mm
07:59 9.8 °C 5.2 °C 1019.9 hPa South 24.1 km/h 12.2 km/h 73 % 0 mm
08:04 10.1 °C 5.2 °C 1019.9 hPa South 25.9 km/h 14 km/h 72 % 0 mm
08:09 10.3 °C 5.2 °C 1020.2 hPa South 24.1 km/h 14.5 km/h 71 % 0 mm
08:14 10.5 °C 5.4 °C 1020.2 hPa South 16.7 km/h 8.4 km/h 71 % 0 mm
08:19 10.7 °C 5.4 °C 1020.2 hPa South 18.5 km/h 10.9 km/h 70 % 0 mm
08:24 11 °C 5.5 °C 1020.2 hPa South 16.7 km/h 7.6 km/h 69 % 0 mm
08:29 11.4 °C 5.7 °C 1020.2 hPa SE 22.5 km/h 14.6 km/h 68 % 0 mm
08:34 12 °C 6.3 °C 1020.2 hPa SSE 20.9 km/h 12.4 km/h 68 % 0 mm
08:39 12.5 °C 5.9 °C 1020.2 hPa SSE 24.1 km/h 12.1 km/h 64 % 0 mm
08:44 12.8 °C 5.7 °C 1020.2 hPa SSE 25.9 km/h 25.9 km/h 62 % 0 mm
08:49 13.2 °C 5.8 °C 1020.5 hPa SE 31.5 km/h 19.5 km/h 61 % 0 mm
08:54 13.3 °C 5.7 °C 1020.5 hPa SSE 27.8 km/h 16.4 km/h 60 % 0 mm
08:59 13.4 °C 5.8 °C 1020.5 hPa SSE 24.1 km/h 16.3 km/h 60 % 0 mm
09:04 13.5 °C 5.9 °C 1020.5 hPa SSE 22.5 km/h 8.9 km/h 60 % 0 mm
09:09 13.7 °C 5.8 °C 1020.5 hPa SE 29.6 km/h 17.5 km/h 59 % 0 mm
09:14 13.9 °C 6 °C 1020.5 hPa SSE 29.6 km/h 16.9 km/h 59 % 0 mm
09:19 14.1 °C 6.2 °C 1020.5 hPa South 22.5 km/h 19.5 km/h 59 % 0 mm
09:24 14.2 °C 6.1 °C 1020.5 hPa ESE 42.6 km/h 25.1 km/h 58 % 0 mm
09:29 14.7 °C 6 °C 1020.5 hPa SE 35.2 km/h 22.7 km/h 56 % 0 mm
09:34 14.9 °C 5.9 °C 1020.5 hPa SE 29.6 km/h 22.5 km/h 55 % 0 mm
09:39 15 °C 6 °C 1020.5 hPa ESE 29.6 km/h 18.3 km/h 55 % 0 mm
09:44 15.3 °C 6 °C 1020.5 hPa SE 33.3 km/h 15.9 km/h 54 % 0 mm
09:49 15.3 °C 6.1 °C 1020.9 hPa SSE 35.2 km/h 20.6 km/h 54 % 0 mm
09:54 15.3 °C 6.1 °C 1020.5 hPa SSE 31.5 km/h 15.1 km/h 54 % 0 mm
09:59 15.6 °C 6.1 °C 1020.9 hPa ESE 30.6 km/h 26.6 km/h 53 % 0 mm
10:04 15.8 °C 6 °C 1020.5 hPa South 22.2 km/h 18.7 km/h 52 % 0 mm
10:09 16 °C 6.2 °C 1020.9 hPa SE 22.5 km/h 17.5 km/h 52 % 0 mm
10:14 16.1 °C 6.2 °C 1020.5 hPa SE 29.6 km/h 19 km/h 52 % 0 mm
10:19 16.3 °C 6.1 °C 1020.5 hPa SSE 22.2 km/h 12.9 km/h 51 % 0 mm
10:24 16.4 °C 6.2 °C 1020.5 hPa SE 35.2 km/h 22.2 km/h 51 % 0 mm
10:29 16.6 °C 6.4 °C 1020.5 hPa SE 31.5 km/h 21.2 km/h 51 % 0 mm
10:34 16.8 °C 6.3 °C 1020.5 hPa SSW 27.8 km/h 16.9 km/h 50 % 0 mm
10:39 17.3 °C 6.2 °C 1020.5 hPa SE 31.5 km/h 32.2 km/h 48 % 0 mm
10:44 17.4 °C 6.3 °C 1020.5 hPa SE 24.1 km/h 18.2 km/h 48 % 0 mm
10:49 17.6 °C 5.8 °C 1020.5 hPa SE 38.9 km/h 27.4 km/h 46 % 0 mm
10:54 17.6 °C 5.8 °C 1020.5 hPa SSE 35.2 km/h 24.6 km/h 46 % 0 mm
10:59 17.7 °C 5.9 °C 1020.2 hPa SE 35.2 km/h 29.1 km/h 46 % 0 mm
11:04 17.9 °C 5.8 °C 1020.2 hPa SSE 38.9 km/h 25.4 km/h 45 % 0 mm
11:09 17.9 °C 5.8 °C 1020.2 hPa SE 29.6 km/h 15.3 km/h 45 % 0 mm
11:14 17.9 °C 5.8 °C 1020.2 hPa SSE 38.9 km/h 20.6 km/h 45 % 0 mm
11:19 18.2 °C 6.1 °C 1020.2 hPa South 27.4 km/h 19.2 km/h 45 % 0 mm
11:24 18.3 °C 5.8 °C 1020.2 hPa SE 24.1 km/h 24.9 km/h 44 % 0 mm
11:29 18.8 °C 6 °C 1020.2 hPa ESE 25.7 km/h 17.4 km/h 43 % 0 mm
11:34 19.3 °C 5.7 °C 1019.9 hPa SSE 25.9 km/h 16.4 km/h 41 % 0 mm
11:39 19.2 °C 5.9 °C 1019.9 hPa SE 18.5 km/h 13.5 km/h 42 % 0 mm
11:44 19.2 °C 5.9 °C 1019.9 hPa SSE 31.5 km/h 20.8 km/h 42 % 0 mm
11:49 19.4 °C 5.8 °C 1019.9 hPa SE 31.5 km/h 13.5 km/h 41 % 0 mm
11:54 19.9 °C 6.2 °C 1019.9 hPa SSE 25.7 km/h 20.4 km/h 41 % 0 mm
11:59 19.9 °C 5.9 °C 1019.5 hPa SE 27.8 km/h 20.1 km/h 40 % 0 mm
12:04 19.9 °C 5.9 °C 1019.5 hPa SE 29.6 km/h 19.3 km/h 40 % 0 mm
12:09 20.2 °C 5.4 °C 1019.5 hPa SE 31.5 km/h 22.2 km/h 38 % 0 mm
12:14 20.5 °C 5.3 °C 1019.5 hPa SSE 22.2 km/h 18.7 km/h 37 % 0 mm
12:19 20.2 °C 5.1 °C 1019.2 hPa SE 27.8 km/h 16.7 km/h 37 % 0 mm
12:24 20.3 °C 5.6 °C 1019.2 hPa South 25.9 km/h 16.4 km/h 38 % 0 mm
12:29 20.5 °C 6.1 °C 1019.2 hPa SE 24.1 km/h 18.7 km/h 39 % 0 mm
12:34 20.6 °C 5.8 °C 1019.2 hPa ESE 30.6 km/h 20 km/h 38 % 0 mm
12:39 21.2 °C 5.9 °C 1018.8 hPa South 24.1 km/h 14.6 km/h 37 % 0 mm
12:44 21.5 °C 6.2 °C 1018.8 hPa SSE 18.5 km/h 14.6 km/h 37 % 0 mm
12:49 21.6 °C 5.4 °C 1018.8 hPa SE 22.5 km/h 17.9 km/h 35 % 0 mm
12:54 21.5 °C 4.9 °C 1018.8 hPa SE 31.5 km/h 19.8 km/h 34 % 0 mm
12:59 21.6 °C 5.5 °C 1018.5 hPa SSE 20.4 km/h 12.2 km/h 35 % 0 mm
13:04 21.8 °C 6.1 °C 1018.5 hPa SSE 20.4 km/h 17.7 km/h 36 % 0 mm
13:09 22.1 °C 5.5 °C 1018.5 hPa SE 24.1 km/h 10.1 km/h 34 % 0 mm
13:14 21.9 °C 4.9 °C 1018.2 hPa SE 20.4 km/h 14.3 km/h 33 % 0 mm
13:19 22.5 °C 5 °C 1018.5 hPa SE 25.9 km/h 15.9 km/h 32 % 0 mm
13:24 22.4 °C 5.7 °C 1018.5 hPa SE 14.8 km/h 11.3 km/h 34 % 0 mm
13:29 22.7 °C 5.2 °C 1018.2 hPa SE 22.2 km/h 10.8 km/h 32 % 0 mm
13:34 22.7 °C 4.7 °C 1018.2 hPa ESE 27.8 km/h 20.9 km/h 31 % 0 mm
13:39 22.5 °C 4.5 °C 1018.2 hPa SE 24.1 km/h 21.1 km/h 31 % 0 mm
13:44 22.6 °C 5.1 °C 1018.2 hPa SE 20.4 km/h 14 km/h 32 % 0 mm
13:49 22.9 °C 5.3 °C 1017.8 hPa SE 31.5 km/h 23.7 km/h 32 % 0 mm
13:54 22.7 °C 4.7 °C 1017.8 hPa SSE 20.4 km/h 10.6 km/h 31 % 0 mm
13:59 22.6 °C 5 °C 1017.8 hPa SE 22.2 km/h 13.7 km/h 32 % 0 mm
14:04 23.2 °C 5.1 °C 1017.8 hPa SE 18.5 km/h 14.6 km/h 31 % 0 mm
14:09 23.2 °C 4.7 °C 1017.8 hPa South 20.4 km/h 10.6 km/h 30 % 0 mm
14:14 22.9 °C 4.4 °C 1017.5 hPa South 22.5 km/h 15.4 km/h 30 % 0 mm
14:19 23.4 °C 5.3 °C 1017.5 hPa SSE 31.5 km/h 16.4 km/h 31 % 0 mm
14:24 23.8 °C 5.2 °C 1017.5 hPa SSE 20.4 km/h 16.9 km/h 30 % 0 mm
14:29 23.8 °C 5.2 °C 1017.5 hPa SSE 27.8 km/h 16.7 km/h 30 % 0 mm
14:34 24.1 °C 5.4 °C 1017.2 hPa South 27.4 km/h 8.7 km/h 30 % 0 mm
14:39 24.1 °C 5.4 °C 1017.2 hPa SE 29.6 km/h 17.9 km/h 30 % 0 mm
14:44 23.7 °C 5.6 °C 1017.2 hPa South 14.5 km/h 8.7 km/h 31 % 0 mm
14:49 24 °C 5.8 °C 1017.2 hPa SSE 27.8 km/h 14 km/h 31 % 0 mm
14:54 24.1 °C 5.4 °C 1016.8 hPa SSE 22.2 km/h 19.6 km/h 30 % 0 mm
14:59 23.8 °C 6.1 °C 1016.8 hPa South 22.2 km/h 14.3 km/h 32 % 0 mm
15:04 24 °C 6.3 °C 1016.8 hPa ESE 24.1 km/h 20.3 km/h 32 % 0 mm
15:09 24.1 °C 5.4 °C 1016.8 hPa ESE 31.5 km/h 18.7 km/h 30 % 0 mm
15:14 24.3 °C 6.1 °C 1016.8 hPa SSE 20.4 km/h 11.6 km/h 31 % 0 mm
15:19 24.7 °C 5.4 °C 1016.5 hPa SE 20.4 km/h 10.9 km/h 29 % 0 mm
15:24 24.6 °C 5.4 °C 1016.5 hPa SE 30.6 km/h 18.5 km/h 29 % 0 mm
15:29 25.1 °C 5.8 °C 1016.5 hPa SSE 11.3 km/h 10.5 km/h 29 % 0 mm
15:34 25.4 °C 5.6 °C 1016.5 hPa SE 29.6 km/h 18 km/h 28 % 0 mm
15:39 25 °C 5.2 °C 1016.5 hPa South 16.7 km/h 10.6 km/h 28 % 0 mm
15:44 25.1 °C 5.8 °C 1016.5 hPa SE 27.4 km/h 18 km/h 29 % 0 mm
15:49 25.1 °C 5.3 °C 1016.5 hPa ESE 24.1 km/h 21.2 km/h 28 % 0 mm
15:54 25.1 °C 4.8 °C 1016.1 hPa East 20.4 km/h 15.8 km/h 27 % 0 mm
15:59 24.9 °C 5.2 °C 1016.5 hPa SE 22.5 km/h 14.6 km/h 28 % 0 mm
16:04 24.8 °C 5.6 °C 1016.1 hPa South 14.8 km/h 12.1 km/h 29 % 0 mm
16:09 24.9 °C 5.2 °C 1016.1 hPa SE 18.5 km/h 19.8 km/h 28 % 0 mm
16:14 25 °C 5.2 °C 1016.1 hPa South 24.1 km/h 11.3 km/h 28 % 0 mm
16:19 25.1 °C 5.3 °C 1016.1 hPa SSE 22.2 km/h 11.3 km/h 28 % 0 mm
16:24 25.1 °C 4.8 °C 1015.8 hPa SE 27.8 km/h 16.4 km/h 27 % 0 mm
16:29 24.9 °C 5.2 °C 1015.8 hPa SSE 16.7 km/h 11.9 km/h 28 % 0 mm
16:34 25.1 °C 5.8 °C 1015.8 hPa SE 18.5 km/h 11.9 km/h 29 % 0 mm
16:39 25.3 °C 5.9 °C 1015.8 hPa SE 20.4 km/h 11.7 km/h 29 % 0 mm
16:44 25.3 °C 6 °C 1015.8 hPa SE 20.4 km/h 14 km/h 29 % 0 mm
16:49 24.8 °C 6.1 °C 1015.8 hPa South 27.8 km/h 17.4 km/h 30 % 0 mm
16:54 25 °C 6.2 °C 1015.8 hPa South 31.5 km/h 14.8 km/h 30 % 0 mm
16:59 25.3 °C 6 °C 1015.8 hPa SE 18.5 km/h 15.9 km/h 29 % 0 mm
17:04 25.2 °C 5.9 °C 1015.5 hPa SE 24.1 km/h 15.6 km/h 29 % 0 mm
17:09 25.3 °C 6 °C 1015.5 hPa SE 24.1 km/h 21.2 km/h 29 % 0 mm
17:14 25.2 °C 5.9 °C 1015.8 hPa SE 29.6 km/h 22.5 km/h 29 % 0 mm
17:19 25.1 °C 6.8 °C 1015.8 hPa ESE 25.9 km/h 21.1 km/h 31 % 0 mm
17:24 24.8 °C 6 °C 1015.8 hPa SE 31.5 km/h 15.8 km/h 30 % 0 mm
17:29 24.6 °C 6.3 °C 1015.8 hPa SSE 24.1 km/h 16.3 km/h 31 % 0 mm
17:34 24.5 °C 6.7 °C 1015.8 hPa SE 29.6 km/h 18.8 km/h 32 % 0 mm
17:39 24.2 °C 6.9 °C 1015.5 hPa SE 29.6 km/h 16.9 km/h 33 % 0 mm
17:44 24.2 °C 6.9 °C 1015.5 hPa SE 24.1 km/h 15.6 km/h 33 % 0 mm
17:49 24.1 °C 6.8 °C 1015.5 hPa SSE 22.2 km/h 20.6 km/h 33 % 0 mm
17:54 24 °C 7.2 °C 1015.5 hPa SSE 20.4 km/h 12.2 km/h 34 % 0 mm
17:59 24.2 °C 6.9 °C 1015.1 hPa SE 27.8 km/h 19.6 km/h 33 % 0 mm
18:04 23.9 °C 7.1 °C 1015.1 hPa SSE 27.8 km/h 15.6 km/h 34 % 0 mm
18:09 23.9 °C 7.1 °C 1015.1 hPa SSE 22.2 km/h 17.7 km/h 34 % 0 mm
18:14 23.9 °C 7.1 °C 1015.1 hPa SE 27.8 km/h 18.8 km/h 34 % 0 mm
18:19 23.7 °C 6.9 °C 1015.1 hPa SE 25.9 km/h 14.6 km/h 34 % 0 mm
18:24 23.7 °C 6.9 °C 1015.1 hPa SSE 20.9 km/h 15.6 km/h 34 % 0 mm
18:29 23.7 °C 6.9 °C 1015.1 hPa SSE 24.1 km/h 13.4 km/h 34 % 0 mm
18:34 23.5 °C 7.2 °C 1015.1 hPa SSE 29.6 km/h 21.9 km/h 35 % 0 mm
18:39 23.5 °C 7.2 °C 1015.1 hPa SSE 29.6 km/h 18.5 km/h 35 % 0 mm
18:44 23.3 °C 7 °C 1015.1 hPa SSE 22.2 km/h 18.2 km/h 35 % 0 mm
18:49 23.2 °C 7.3 °C 1015.5 hPa SSE 31.5 km/h 20.9 km/h 36 % 0 mm
18:54 22.9 °C 7 °C 1015.1 hPa SSE 31.5 km/h 18 km/h 36 % 0 mm
18:59 22.7 °C 7.3 °C 1015.1 hPa SSE 42.6 km/h 18 km/h 37 % 0 mm
19:04 22.5 °C 7.1 °C 1015.1 hPa SSW 25.9 km/h 13 km/h 37 % 0 mm
19:09 22.5 °C 7.1 °C 1015.1 hPa SSE 18.5 km/h 9 km/h 37 % 0 mm
19:14 22.6 °C 7.1 °C 1015.1 hPa SSE 24.1 km/h 12.2 km/h 37 % 0 mm
19:19 22.4 °C 7 °C 1015.5 hPa SSE 22.5 km/h 15.6 km/h 37 % 0 mm
19:24 22.2 °C 7.2 °C 1015.5 hPa South 40.7 km/h 22.5 km/h 38 % 0 mm
19:29 21.8 °C 7.3 °C 1015.5 hPa SSE 31.5 km/h 15.4 km/h 39 % 0 mm
19:34 21.7 °C 7.2 °C 1015.5 hPa South 29.6 km/h 18.7 km/h 39 % 0 mm
19:39 21.6 °C 7.4 °C 1015.5 hPa SSE 24.1 km/h 14.5 km/h 40 % 0 mm
19:44 21.5 °C 7.3 °C 1015.8 hPa SSE 24.1 km/h 16.9 km/h 40 % 0 mm
19:49 21.3 °C 7.1 °C 1015.8 hPa SSE 31.5 km/h 11.7 km/h 40 % 0 mm
19:54 21.2 °C 7.4 °C 1015.8 hPa SE 25.9 km/h 17.5 km/h 41 % 0 mm
19:59 20.9 °C 7.5 °C 1016.1 hPa SSE 20.4 km/h 13.4 km/h 42 % 0 mm
20:04 20.6 °C 7.6 °C 1016.1 hPa SSE 24.1 km/h 13.4 km/h 43 % 0 mm
20:09 20.3 °C 7.3 °C 1015.8 hPa SSE 22.2 km/h 13 km/h 43 % 0 mm
20:14 20.1 °C 7.4 °C 1016.1 hPa SSE 18.5 km/h 11.9 km/h 44 % 0 mm
20:19 19.8 °C 7.5 °C 1016.1 hPa SE 24.1 km/h 13.2 km/h 45 % 0 mm
20:24 19.6 °C 7.6 °C 1016.1 hPa SE 25.9 km/h 17.9 km/h 46 % 0 mm
20:29 19.3 °C 7.4 °C 1016.1 hPa SSE 18.5 km/h 11.6 km/h 46 % 0 mm
20:34 19 °C 7.4 °C 1016.1 hPa SSE 16.7 km/h 13.7 km/h 47 % 0 mm
20:39 18.8 °C 7.6 °C 1016.1 hPa SSE 20.4 km/h 12.6 km/h 48 % 0 mm
20:44 18.6 °C 7.7 °C 1016.1 hPa SSE 22.2 km/h 12.4 km/h 49 % 0 mm
20:49 18.4 °C 7.5 °C 1016.1 hPa SSE 16.7 km/h 12.4 km/h 49 % 0 mm
20:54 18.3 °C 7.7 °C 1016.1 hPa SSE 14.8 km/h 10 km/h 50 % 0 mm
20:59 18.1 °C 7.8 °C 1016.1 hPa SSE 16.7 km/h 12.4 km/h 51 % 0 mm
21:04 17.9 °C 7.9 °C 1016.1 hPa SSE 18.5 km/h 9.5 km/h 52 % 0 mm
21:09 17.7 °C 7.9 °C 1016.5 hPa SSE 13 km/h 12.1 km/h 53 % 0 mm
21:14 17.5 °C 8.1 °C 1016.5 hPa SSE 17.7 km/h 14.3 km/h 54 % 0 mm
21:19 17.3 °C 8.2 °C 1016.5 hPa SSE 16.1 km/h 10.8 km/h 55 % 0 mm
21:24 17.1 °C 8.2 °C 1016.5 hPa South 18.5 km/h 14.6 km/h 56 % 0 mm
21:29 16.9 °C 8.3 °C 1016.5 hPa SSE 20.4 km/h 13.8 km/h 57 % 0 mm
21:30 16.9 °C 8.3 °C 1016.5 hPa SSE 20.4 km/h 10 km/h 57 % 0 mm
22:44 14.8 °C 8.6 °C 1016.5 hPa South 18.5 km/h 11.6 km/h 66 % 0 mm
22:49 14.7 °C 8.7 °C 1016.5 hPa South 18.5 km/h 8.7 km/h 67 % 0 mm
22:54 14.6 °C 8.8 °C 1016.5 hPa South 16.7 km/h 10.9 km/h 68 % 0 mm
22:59 14.5 °C 8.7 °C 1016.5 hPa South 11.1 km/h 6.4 km/h 68 % 0 mm
23:04 14.4 °C 8.8 °C 1016.1 hPa South 13 km/h 9 km/h 69 % 0 mm
23:09 14.3 °C 8.9 °C 1016.5 hPa SSW 16.7 km/h 11.4 km/h 70 % 0 mm
23:14 14.2 °C 8.8 °C 1016.1 hPa South 14.8 km/h 7.6 km/h 70 % 0 mm
23:19 14.1 °C 8.9 °C 1016.5 hPa South 14.5 km/h 8.2 km/h 71 % 0 mm
23:24 14 °C 9.1 °C 1016.5 hPa South 16.7 km/h 8.7 km/h 72 % 0 mm
23:29 13.9 °C 9 °C 1016.5 hPa South 11.1 km/h 5 km/h 72 % 0 mm
23:34 13.9 °C 9.1 °C 1016.5 hPa South 14.8 km/h 6.4 km/h 73 % 0 mm
23:39 13.8 °C 9 °C 1016.5 hPa South 13 km/h 8.9 km/h 73 % 0 mm
23:44 13.7 °C 8.9 °C 1016.5 hPa South 11.1 km/h 8 km/h 73 % 0 mm
23:49 13.6 °C 9.1 °C 1016.5 hPa South 16.7 km/h 8.9 km/h 74 % 0 mm
23:54 13.6 °C 9.3 °C 1016.1 hPa South 13 km/h 6.8 km/h 75 % 0 mm
23:59 13.5 °C 9.2 °C 1016.1 hPa South 7.4 km/h 5.5 km/h 75 % 0 mm
Ararat Weather
Compliments of Weather Underground - 2.25 mb
Click here to send mail.


ABOUT

Live weather data from Ararat, Victoria, Australia, 3377
Data uploaded from Cumulus every 5 minutes to Weather Underground.
This site then downloads the raw data for formatting and display.
Metric and imperial data can be displayed. Graphs and historical data available.
Includes Sun and Moon times and rain image live from BOM.

Check out Ararat Weather on Facebook, Twitter and Google +

Help support ongoing costs by checking out the ads





Follow @AraratWeather